Temperature
19 18 18 18 18 18 18 18 18 18 18 17 17 17 17 17 17 17 17 16 16 16 16 16 16 16 16 16 16 16 16 16 16 16 16 16 16 16 16 16 15 15 15
18 18 18 18 18 18 17 17 17 17 17 17 17 17 17 16 16 16 16 16 16 16 16 16 16 16 16 16 16 16 16 16 16 16 16 16 15 15 15 15 15 15 15
18 18 18 18 17 17 17 17 17 17 17 16 16 16 16 16 16 16 16 16 16 16 15 15 15 16 16 16 16 16 15 15 15 15 15 15 15 15 14 14 14 14 14
18 18 18 17 17 17 17 17 17 16 16 16 16 16 16 16 16 15 15 15 15 15 15 15 15 15 15 15 15 15 15 15 15 15 15 14 14 14 14 14 13 13 13
18 18 17 17 17 17 17 16 16 16 16 16 16 15 15 15 15 15 15 14 14 14 14 14 14 14 14 14 14 14 14 14 14 14 14 14 13 13 13 13 13 13 13
17 17 17 17 17 16 16 16 16 16 15 15 15 15 15 15 14 14 14 14 14 14 14 14 14 14 14 14 14 14 14 14 14 13 13 13 13 13 13 13 13 12 12
17 17 16 17 16 16 16 16 15 15 15 15 15 15 14 14 14 14 14 14 14 13 13 13 13 13 13 13 13 13 13 13 13 13 13 12 12 12 12 12 12 12 12
17 16 16 16 16 16 15 15 15 14 14 14 14 14 14 14 14 14 13 13 13 13 13 13 13 13 13 13 13 13 13 12 12 12 12 12 12 12 12 12 11 11 11
16 16 16 15 15 15 15 15 14 14 14 14 14 13 13 13 13 13 13 13 13 12 12 12 12 12 12 12 12 12 12 12 11 11 11 11 11 11 11 11 11 11 10
16 16 15 15 15 15 15 14 14 14 13 13 13 13 13 12 12 12 12 12 12 12 12 12 12 12 12 11 11 11 11 11 11 11 11 11 10 10 10 10 10 10 10
15 15 15 15 15 15 14 14 13 13 13 13 12 12 12 12 12 12 12 12 12 11 11 11 11 11 11 11 11 11 11 11 10 10 10 10 10 10 10 10 10 10 10
15 15 15 14 14 14 14 13 13 12 12 12 12 12 11 11 11 11 11 11 11 11 11 11 11 11 11 11 10 10 10 10 10 10 10 9 9 9 9 9 9 9 9
15 15 14 14 14 13 13 13 12 12 12 12 11 11 11 11 11 11 11 11 10 10 10 10 10 10 10 10 10 10 10 10 10 9 9 9 9 9 9 9 9 9 9
15 14 14 14 13 13 13 12 12 12 12 11 11 11 11 10 10 10 10 10 10 10 10 10 10 10 10 9 9 9 9 9 9 9 9 8 8 8 8 8 8 8 8
14 13 13 13 13 13 12 12 12 12 12 11 11 11 10 10 10 10 10 10 10 10 10 10 9 9 9 9 9 9 9 8 8 8 8 8 8 8 8 8 8 8 8
13 13 12 12 12 12 12 12 11 11 11 11 11 11 10 10 10 10 10 10 9 9 9 9 9 9 9 9 8 8 8 8 8 7 8 8 7 7 7 7 7 7 7
13 13 12 12 11 11 11 11 11 10 10 10 10 10 10 10 10 10 9 9 9 9 9 9 9 8 8 8 8 8 7 7 7 7 7 7 7 7 7 7 7 7 7
13 12 12 12 11 11 11 11 10 10 10 10 10 9 9 9 9 9 9 9 9 9 9 8 8 8 8 8 7 7 7 7 7 7 7 7 7 7 7 7 7 7 7
12 12 12 12 11 11 11 11 10 10 10 10 9 9 9 9 9 9 9 9 9 9 9 8 8 8 7 7 7 7 7 7 7 6 6 6 6 6 6 6 6 6 6
12 12 12 12 11 11 11 11 11 10 10 9 9 9 9 9 9 9 9 9 8 8 8 8 8 7 7 7 7 7 7 6 6 6 6 6 6 6 6 6 6 6 6
11 11 11 11 11 11 11 11 10 10 10 9 9 9 9 9 9 9 9 8 8 8 7 7 7 7 7 7 6 6 6 6 6 6 6 6 6 6 6 6 6 6 6
11 11 11 11 11 11 11 11 10 10 10 10 9 9 9 9 9 9 8 8 8 7 7 7 7 7 6 6 6 6 6 6 6 6 5 5 5 6 6 6 6 6 6
11 11 11 11 10 10 10 10 10 10 10 9 9 9 9 9 9 8 8 8 7 7 7 7 6 6 6 6 6 6 6 5 5 5 5 5 5 5 5 5 5 5 5
11 11 11 10 10 10 10 10 10 10 10 10 9 9 9 9 8 8 8 7 7 7 6 6 6 6 6 6 5 5 5 5 5 5 5 5 5 5 5 5 5 5 5
11 11 11 11 10 10 10 10 10 10 10 10 10 9 9 8 8 8 7 7 7 6 6 6 6 5 5 5 5 5 5 5 5 5 5 5 5 5 5 5 5 5 5
11 11 11 11 11 10 10 10 10 10 10 10 9 9 9 8 8 8 7 7 7 6 6 6 6 5 5 5 5 5 5 5 5 5 5 4 4 4 4 4 4 5 5
Wind_Speed
3 3 3 3 2 2 2 2 2 2 2 2 2 2 2 1 1 1 1 2 3 3 3 3 3 4 3 3 2 2 2 2 3 2 1 1 1 1 2 3 4 5 5
4 5 4 4 4 3 3 3 3 3 3 2 2 2 2 2 2 1 1 1 1 1 2 2 2 3 3 2 2 2 1 1 2 2 1 0 1 2 2 2 3 3 4
6 5 5 5 5 4 4 4 4 4 4 4 4 4 4 4 3 2 2 2 2 2 2 2 2 2 2 1 1 1 1 1 1 1 1 0 1 1 2 2 3 3 3
6 6 6 5 5 5 5 5 5 5 5 5 5 5 5 5 5 4 4 3 3 4 3 3 3 3 2 2 1 1 1 1 0 1 1 0 1 1 2 2 2 2 1
7 7 7 6 6 5 5 5 5 6 6 6 6 6 5 5 6 5 4 5 5 5 4 5 5 6 8 5 3 3 2 2 1 1 1 1 2 1 1 0 1 2 2
7 7 7 6 6 6 6 6 6 6 6 6 7 7 7 6 8 9 7 5 5 5 5 5 4 6 8 9 9 9 6 3 1 1 2 2 2 2 1 1 1 1 1
7 7 7 6 6 6 6 7 7 6 7 6 7 7 7 9 10 9 9 6 5 5 5 5 5 5 6 5 7 8 9 9 6 3 4 3 2 2 2 2 2 1 1
7 7 7 6 7 7 7 7 7 6 6 6 7 7 7 9 11 10 9 6 6 6 7 6 6 6 6 5 6 8 9 8 7 7 6 5 4 3 2 1 1 2 2
8 7 7 6 6 6 7 6 6 6 6 7 6 7 8 8 11 10 7 5 6 7 7 8 7 7 8 7 7 7 8 7 11 12 10 8 8 8 6 3 2 2 2
8 7 7 7 7 6 6 6 5 5 6 7 8 8 8 8 11 12 7 5 6 7 7 8 11 10 10 9 6 6 7 5 5 6 6 7 7 8 9 6 4 2 2
8 8 8 7 7 6 5 5 5 6 7 7 8 8 8 9 11 13 12 6 6 7 7 7 7 11 11 11 9 7 5 3 3 5 5 5 5 5 6 7 7 4 4
8 9 8 7 7 7 6 6 5 5 6 6 6 7 7 7 9 11 13 12 10 8 7 6 6 10 12 12 9 10 10 7 4 5 5 5 5 5 4 5 7 6 4
9 9 8 8 7 6 6 5 4 3 4 5 5 6 6 6 7 11 12 12 11 8 6 7 7 6 6 7 9 10 8 6 5 6 5 5 4 3 3 3 4 4 5
9 9 8 8 8 7 6 5 5 4 4 4 5 5 5 5 5 4 4 6 7 6 5 5 5 5 5 5 6 6 6 6 5 5 4 4 3 3 4 3 2 2 2
9 8 8 8 9 9 9 8 7 6 5 4 5 5 5 5 3 5 4 4 3 4 3 2 2 3 4 5 5 6 6 6 5 4 4 4 4 4 4 4 4 3 4
8 8 7 8 8 8 9 9 13 11 12 13 11 8 6 6 4 6 7 7 7 7 4 4 5 4 5 5 4 4 5 5 5 5 5 4 4 4 4 4 4 4 4
7 7 7 8 8 8 8 8 7 7 11 12 11 11 8 6 6 6 7 7 6 5 4 4 4 4 4 5 5 5 5 4 4 4 4 4 4 4 4 4 5 4 4
7 6 6 6 6 6 6 7 7 7 6 5 5 6 5 4 4 4 5 4 3 2 3 4 4 4 4 5 4 4 4 5 4 4 4 4 4 4 3 3 4 4 4
5 5 4 6 6 6 6 6 6 6 6 6 6 3 2 2 1 3 3 2 2 4 4 4 5 4 4 4 4 3 4 4 4 3 4 4 4 4 4 4 3 4 4
5 6 5 5 5 5 5 5 5 5 6 6 5 4 3 3 2 1 1 1 3 4 4 5 4 4 4 3 3 3 3 3 3 3 4 4 4 4 4 4 4 3 3
6 6 5 4 4 5 4 4 4 4 5 5 5 4 3 2 2 3 4 3 4 4 4 3 3 3 3 3 3 4 4 4 4 4 4 4 4 4 3 3 3 4 3
7 6 5 4 4 4 4 4 4 4 5 5 5 5 3 1 2 4 4 4 4 4 4 3 3 4 4 4 4 4 4 5 5 5 4 4 3 3 4 4 4 3 4
6 7 6 5 5 4 4 3 4 4 5 5 5 4 3 2 3 4 4 4 4 4 4 4 4 5 6 6 7 7 5 5 5 6 5 5 4 4 3 3 4 4 4
6 7 7 6 5 5 4 4 4 4 4 4 4 4 4 3 3 3 4 4 4 4 4 4 5 5 6 6 6 7 6 7 8 8 8 6 6 4 4 4 4 5 4
6 6 6 6 5 5 4 4 3 3 3 3 3 3 4 4 4 4 4 4 4 4 4 3 3 4 5 6 6 5 6 7 8 8 9 8 6 5 5 5 4 4 4
5 6 5 5 4 4 4 3 3 3 3 3 3 3 3 3 4 4 4 3 3 3 3 3 3 4 5 6 5 5 4 5 7 9 8 8 6 4 5 5 6 5 5
Wind_Direction
129 123 108 110 106 92 74 55 47 39 31 22 19 15 359 357 347 289 263 256 247 254 256 251 253 257 264 262 254 238 237 212 224 255 319 25 80 64 96 91 94 106 129
120 115 105 101 96 88 78 64 59 55 46 40 35 30 16 17 28 24 342 338 307 301 304 295 285 280 278 284 287 261 251 210 204 235 262 322 88 124 131 123 110 110 113
121 114 104 96 91 85 79 72 67 65 55 43 43 38 29 25 31 31 30 26 11 10 356 345 349 353 338 329 334 321 284 262 194 194 228 234 101 95 103 104 101 105 113
116 108 101 92 89 86 81 71 66 64 60 48 43 41 40 36 33 32 32 34 33 32 24 23 21 23 18 358 5 343 317 316 78 109 161 128 100 98 104 109 88 74 66
111 106 100 95 89 86 82 75 68 64 62 55 50 45 39 41 37 34 35 40 40 39 38 40 47 63 61 44 39 24 11 8 20 94 109 68 56 58 87 122 121 102 74
108 104 100 95 89 86 88 85 78 72 66 60 54 51 49 44 34 41 45 45 46 46 47 47 56 62 70 66 63 56 44 28 15 71 83 78 58 30 34 83 112 118 88
109 103 98 94 87 78 79 78 73 69 68 66 63 62 58 39 34 42 47 51 52 48 47 43 46 54 59 66 64 59 51 49 55 85 82 66 55 33 40 58 63 68 101
113 105 100 96 90 81 78 76 72 72 70 70 68 66 62 44 35 37 42 59 59 55 52 50 52 42 41 56 73 67 58 49 57 72 80 67 59 44 43 76 117 110 89
113 108 103 100 94 89 86 82 79 80 79 78 74 69 63 46 33 33 46 71 71 64 58 51 50 46 39 53 73 76 72 65 67 75 79 76 66 55 46 51 45 72 77
112 105 100 97 96 92 87 85 86 85 86 82 74 67 61 50 35 31 37 74 79 74 65 55 47 45 43 49 64 69 68 62 69 74 68 67 66 57 53 47 33 32 45
110 105 100 99 99 93 88 85 88 93 93 88 83 73 62 52 42 37 37 54 74 75 67 58 46 46 51 52 55 57 53 51 64 77 75 64 57 53 51 50 42 41 47
111 105 98 93 93 94 89 89 89 94 99 95 90 81 66 53 49 48 52 54 61 74 74 69 58 52 54 52 51 39 35 40 57 65 61 54 50 48 44 48 52 55 67
115 109 103 95 87 89 94 97 100 101 103 102 97 89 77 65 58 60 66 65 65 72 75 74 69 58 49 53 53 41 37 39 48 54 52 47 43 41 43 40 43 42 45
120 115 112 107 97 79 70 70 67 55 72 86 89 93 89 71 54 46 74 80 83 80 80 76 60 47 47 42 46 50 51 46 48 51 49 46 33 29 31 26 22 22 46
127 125 120 110 103 85 71 56 66 54 49 72 77 76 85 79 39 26 51 61 57 61 58 82 78 69 68 65 61 52 45 44 44 37 37 39 40 36 31 21 11 21 40
136 137 134 128 122 114 105 86 58 62 61 65 68 81 78 81 72 53 49 43 41 35 47 70 65 56 60 63 61 59 53 41 31 34 31 27 31 34 32 21 21 28 35
143 143 137 135 136 134 132 125 113 79 65 65 68 75 83 80 61 50 42 29 15 25 55 70 66 57 54 57 55 52 54 45 29 36 32 24 22 27 35 35 26 17 23
140 134 134 136 139 138 141 141 140 137 123 101 79 79 88 80 53 34 31 31 34 63 72 71 70 67 60 54 52 45 46 44 32 31 33 25 20 24 29 32 37 19 12
139 139 135 135 137 136 139 138 136 134 130 130 131 121 135 130 15 354 14 26 50 71 74 67 62 59 58 55 48 46 53 49 30 23 33 22 17 18 21 21 32 24 4
116 116 123 137 139 138 141 138 132 131 131 134 136 135 149 162 162 144 104 60 67 67 66 69 66 63 55 45 41 39 52 52 29 22 29 19 16 15 15 15 14 7 5
135 134 142 150 134 128 128 129 132 139 135 128 123 121 137 173 139 113 99 78 68 68 63 61 73 73 67 51 42 37 38 40 31 20 18 14 13 5 353 1 4 4 3
145 147 148 139 126 120 126 137 139 133 131 126 129 137 155 188 119 114 102 92 81 71 64 45 60 63 50 41 39 32 34 32 24 13 5 356 348 349 353 0 5 1 357
143 141 136 127 121 130 146 144 140 143 143 144 143 140 147 128 95 94 98 94 91 87 78 68 64 58 49 47 52 50 37 20 1 356 351 347 346 343 349 354 349 349 4
144 142 144 144 148 158 158 151 151 153 148 144 144 142 138 130 113 106 105 104 102 97 88 81 80 71 60 57 62 59 44 21 3 358 350 334 332 340 343 340 340 343 347
147 146 151 155 160 161 157 157 156 152 146 139 136 140 143 145 144 136 122 119 121 117 114 108 101 90 82 77 67 61 47 32 19 1 342 328 326 335 338 338 337 331 334
152 156 161 158 155 152 156 161 160 152 143 140 142 142 145 148 149 142 140 140 139 138 136 126 116 109 103 97 88 78 61 27 6 352 336 316 316 335 340 327 327 329 332
Height
1534 1535 1537 1537 1538 1538 1538 1539 1539 1539 1540 1540 1540 1540 1540 1540 1540 1540 1541 1541 1541 1542 1543 1543 1543 1543 1544 1545 1545 1546 1546 1548 1548 1548 1549 1549 1549 1549 1550 1550 1550 1550 1551
1534 1535 1536 1537 1537 1538 1538 1538 1538 1538 1538 1538 1538 1538 1538 1538 1538 1538 1538 1538 1538 1539 1539 1539 1539 1540 1540 1541 1541 1541 1542 1543 1544 1544 1545 1545 1546 1546 1547 1547 1547 1548 1548
1534 1535 1536 1537 1537 1538 1538 1538 1538 1538 1538 1538 1537 1537 1536 1536 1536 1536 1536 1536 1536 1536 1536 1536 1536 1536 1537 1537 1537 1538 1538 1539 1540 1541 1541 1542 1543 1543 1544 1544 1545 1545 1545
1535 1535 1536 1537 1537 1538 1538 1538 1538 1538 1537 1537 1537 1536 1536 1535 1535 1535 1535 1535 1534 1534 1534 1534 1534 1534 1534 1534 1534 1535 1535 1536 1537 1538 1539 1540 1540 1541 1541 1542 1542 1542 1542
1535 1536 1536 1537 1537 1538 1538 1538 1538 1538 1537 1537 1537 1536 1535 1535 1534 1534 1534 1533 1533 1532 1532 1532 1532 1532 1532 1532 1532 1533 1533 1534 1534 1535 1536 1537 1537 1538 1538 1539 1539 1540 1540
1536 1537 1537 1537 1538 1538 1538 1538 1538 1538 1538 1537 1537 1536 1535 1535 1535 1534 1533 1533 1532 1532 1531 1531 1531 1531 1531 1531 1531 1531 1531 1531 1531 1532 1533 1534 1535 1536 1536 1537 1537 1537 1538
1536 1537 1538 1538 1538 1539 1539 1539 1539 1538 1538 1538 1537 1537 1536 1535 1535 1534 1533 1532 1532 1531 1531 1531 1531 1531 1531 1531 1531 1530 1530 1529 1530 1531 1531 1532 1533 1534 1535 1535 1535 1536 1536
1536 1537 1538 1539 1539 1539 1539 1539 1539 1539 1539 1539 1538 1538 1537 1536 1536 1535 1534 1533 1532 1532 1532 1531 1532 1532 1532 1532 1531 1530 1530 1529 1529 1530 1531 1532 1533 1534 1534 1534 1535 1535 1535
1536 1538 1538 1539 1539 1540 1540 1540 1540 1540 1540 1540 1540 1539 1538 1538 1537 1536 1535 1534 1534 1533 1533 1533 1533 1533 1533 1533 1532 1532 1531 1531 1531 1532 1533 1534 1534 1534 1535 1535 1535 1535 1535
1537 1538 1539 1539 1540 1540 1540 1540 1541 1541 1541 1541 1541 1541 1540 1539 1539 1538 1537 1536 1536 1535 1535 1535 1535 1535 1535 1535 1534 1534 1534 1534 1534 1534 1535 1535 1535 1535 1535 1535 1535 1535 1535
1537 1538 1539 1540 1540 1541 1541 1541 1542 1542 1543 1543 1542 1542 1542 1541 1541 1540 1540 1539 1538 1538 1538 1538 1537 1537 1537 1537 1537 1537 1537 1537 1537 1537 1537 1537 1537 1537 1536 1536 1536 1536 1536
1537 1538 1539 1540 1541 1541 1542 1542 1543 1544 1544 1544 1544 1544 1544 1543 1543 1542 1542 1541 1541 1540 1540 1540 1540 1540 1540 1540 1540 1540 1540 1540 1540 1540 1539 1539 1539 1538 1538 1538 1538 1537 1537
1536 1538 1539 1540 1541 1542 1543 1544 1544 1545 1545 1546 1546 1546 1545 1545 1545 1545 1545 1544 1544 1543 1543 1543 1543 1543 1543 1543 1543 1542 1542 1542 1542 1542 1542 1542 1541 1541 1540 1539 1539 1538 1537
1536 1538 1539 1541 1542 1543 1544 1544 1545 1546 1546 1547 1547 1547 1547 1547 1546 1546 1547 1547 1547 1546 1546 1546 1546 1546 1546 1546 1545 1545 1545 1544 1544 1544 1544 1544 1543 1542 1541 1541 1540 1539 1538
1536 1538 1540 1541 1542 1543 1544 1545 1546 1546 1547 1548 1548 1548 1548 1548 1548 1549 1549 1549 1549 1549 1549 1549 1549 1549 1549 1548 1548 1547 1547 1547 1546 1546 1546 1545 1544 1544 1543 1542 1542 1541 1540
1536 1538 1540 1541 1543 1544 1545 1546 1547 1548 1549 1549 1549 1549 1549 1550 1550 1550 1551 1551 1551 1552 1551 1551 1551 1551 1551 1551 1550 1550 1549 1549 1548 1548 1547 1547 1546 1546 1545 1544 1543 1542 1541
1537 1539 1540 1542 1543 1545 1546 1547 1548 1549 1550 1550 1551 1551 1551 1551 1552 1552 1553 1553 1553 1554 1553 1553 1553 1553 1553 1553 1552 1552 1551 1551 1550 1550 1549 1549 1548 1547 1547 1545 1544 1543 1542
1537 1539 1541 1542 1544 1546 1547 1548 1549 1550 1551 1551 1552 1553 1553 1554 1554 1555 1555 1555 1555 1555 1555 1555 1555 1555 1555 1554 1554 1553 1553 1552 1552 1551 1551 1550 1550 1549 1548 1547 1546 1545 1544
1537 1539 1541 1543 1545 1547 1548 1550 1551 1552 1552 1553 1553 1554 1555 1555 1556 1556 1557 1557 1557 1557 1557 1557 1557 1556 1556 1556 1555 1555 1554 1554 1553 1553 1552 1552 1551 1550 1549 1548 1547 1546 1545
1537 1539 1541 1543 1545 1547 1549 1550 1552 1553 1554 1554 1555 1556 1556 1557 1557 1558 1558 1558 1558 1558 1558 1558 1558 1557 1557 1557 1557 1556 1556 1555 1555 1554 1554 1553 1552 1551 1550 1550 1548 1547 1546
1537 1539 1541 1544 1546 1547 1549 1550 1552 1553 1554 1555 1556 1556 1557 1557 1558 1558 1559 1559 1559 1559 1559 1559 1559 1558 1558 1558 1557 1557 1556 1556 1555 1555 1554 1554 1553 1552 1551 1550 1549 1548 1547
1537 1539 1541 1544 1546 1547 1549 1551 1552 1553 1554 1555 1556 1557 1558 1558 1559 1559 1559 1559 1559 1559 1560 1559 1559 1559 1558 1558 1557 1557 1556 1556 1555 1555 1554 1554 1553 1552 1552 1551 1549 1548 1547
1538 1540 1542 1544 1546 1548 1550 1551 1552 1554 1555 1556 1557 1558 1558 1559 1559 1559 1560 1560 1560 1560 1560 1560 1559 1559 1558 1558 1557 1556 1556 1555 1555 1554 1553 1553 1553 1552 1551 1550 1549 1548 1547
1538 1540 1542 1544 1547 1549 1550 1552 1553 1554 1555 1556 1557 1558 1558 1559 1559 1559 1560 1560 1560 1560 1560 1560 1559 1559 1558 1558 1557 1556 1556 1555 1554 1553 1553 1552 1552 1551 1550 1550 1549 1548 1546
1539 1541 1543 1545 1547 1549 1551 1552 1553 1554 1555 1556 1557 1558 1558 1559 1559 1559 1559 1560 1560 1560 1560 1559 1559 1558 1558 1557 1557 1556 1555 1554 1553 1552 1552 1551 1551 1550 1549 1549 1548 1547 1546
1539 1542 1544 1546 1547 1549 1550 1552 1553 1554 1555 1556 1556 1557 1558 1558 1559 1559 1559 1559 1559 1559 1559 1559 1559 1558 1557 1556 1556 1555 1554 1553 1552 1551 1551 1550 1549 1549 1548 1547 1546 1545 1544